| time (UTC) | temp F | wind direction | speed knots | gust knots | rain 1hr in | rain 24hr in | rain mn in | humidity % | barometer mb |
| 20260502181547 | 82 | 132 | 2.6 | 9.6 | 0.00 | 0.00 | 0.00 | 10 | 1015.9 |
| 20260502163056 | 77 | 0 | 0.0 | 3.5 | 0.00 | 0.00 | 0.00 | 12 | 1016.6 |
| 20260502161552 | 76 | 238 | 0.0 | 3.5 | 0.00 | 0.00 | 0.00 | 13 | 1016.6 |
| 20260502151557 | 68 | 0 | 0.0 | 1.7 | 0.00 | 0.00 | 0.00 | 17 | 1016.5 |
| 20260502123048 | 53 | 0 | 0.0 | 2.6 | 0.00 | 0.00 | 0.00 | 27 | 1015.2 |
| 20260502121549 | 53 | 360 | 1.7 | 4.3 | 0.00 | 0.00 | 0.00 | 26 | 1015.1 |
| 20260502114621 | 54 | 360 | 0.0 | 1.7 | 0.00 | 0.00 | 0.00 | 25 | 1015.0 |
| 20260502113049 | 55 | 360 | 1.7 | 3.5 | 0.00 | 0.00 | 0.00 | 25 | 1015.2 |
| 20260502111550 | 56 | 0 | 0.0 | 0.9 | 0.00 | 0.00 | 0.00 | 24 | 1015.1 |
| 20260502110050 | 57 | 360 | 0.9 | 2.6 | 0.00 | 0.00 | 0.00 | 22 | 1015.1 |
| 20260502104551 | 57 | 360 | 1.7 | 4.3 | 0.00 | 0.00 | 0.00 | 21 | 1015.1 |
| 20260502103047 | 57 | 0 | 0.9 | 3.5 | 0.00 | 0.00 | 0.00 | 22 | 1014.8 |
| 20260502101603 | 58 | 0 | 0.0 | 1.7 | 0.00 | 0.00 | 0.00 | 21 | 1014.9 |
| 20260502100105 | 59 | 360 | 0.9 | 3.5 | 0.00 | 0.00 | 0.00 | 19 | 1014.9 |
| 20260502064614 | 68 | 194 | 1.7 | 4.3 | 0.00 | 0.00 | 0.00 | 16 | 1014.9 |
| 20260502063104 | 69 | 185 | 2.6 | 7.0 | 0.00 | 0.00 | 0.00 | 16 | 1014.8 |
| 20260502061548 | 70 | 145 | 0.9 | 7.0 | 0.00 | 0.00 | 0.00 | 15 | 1014.5 |
| 20260502060049 | 71 | 76 | 0.9 | 3.5 | 0.00 | 0.00 | 0.00 | 15 | 1014.5 |
| 20260502054549 | 72 | 152 | 3.5 | 8.7 | 0.00 | 0.00 | 0.00 | 14 | 1014.4 |
| 20260502053056 | 70 | 100 | 3.5 | 7.0 | 0.00 | 0.00 | 0.00 | 15 | 1014.3 |
| 20260502051547 | 69 | 0 | 0.0 | 2.6 | 0.00 | 0.00 | 0.00 | 16 | 1014.3 |
| 20260502050050 | 71 | 239 | 0.0 | 2.6 | 0.00 | 0.00 | 0.00 | 15 | 1014.2 |
| 20260502044547 | 73 | 83 | 2.6 | 7.0 | 0.00 | 0.00 | 0.00 | 14 | 1013.9 |
| 20260502043113 | 73 | 81 | 4.3 | 9.6 | 0.00 | 0.00 | 0.00 | 14 | 1013.8 |
| 20260502041559 | 73 | 56 | 5.2 | 10.4 | 0.00 | 0.00 | 0.00 | 14 | 1013.5 |
| 20260502040047 | 72 | 60 | 1.7 | 5.2 | 0.00 | 0.00 | 0.00 | 15 | 1013.5 |
| 20260502034549 | 73 | 0 | 0.0 | 0.9 | 0.00 | 0.00 | 0.00 | 15 | 1013.1 |
| 20260502033045 | 74 | 65 | 0.9 | 3.5 | 0.00 | 0.00 | 0.00 | 14 | 1012.9 |
| 20260502031548 | 75 | 69 | 2.6 | 4.3 | 0.00 | 0.00 | 0.00 | 13 | 1012.7 |
| 20260502030051 | 76 | 57 | 1.7 | 5.2 | 0.00 | 0.00 | 0.00 | 13 | 1012.7 |
| 20260502024550 | 77 | 55 | 1.7 | 5.2 | 0.00 | 0.00 | 0.00 | 13 | 1012.4 |
| 20260502023050 | 78 | 26 | 1.7 | 5.2 | 0.00 | 0.00 | 0.00 | 13 | 1012.4 |
| 20260502021553 | 79 | 17 | 1.7 | 4.3 | 0.00 | 0.00 | 0.00 | 12 | 1012.3 |
| 20260502020051 | 80 | 30 | 4.3 | 10.4 | 0.00 | 0.00 | 0.00 | 12 | 1012.1 |
| 20260502014551 | 81 | 26 | 4.3 | 9.6 | 0.00 | 0.00 | 0.00 | 12 | 1012.1 |
| 20260502013055 | 82 | 360 | 6.1 | 11.3 | 0.00 | 0.00 | 0.00 | 12 | 1012.1 |
| 20260502011553 | 82 | 350 | 7.0 | 12.2 | 0.00 | 0.00 | 0.00 | 11 | 1012.0 |
| 20260502010059 | 83 | 351 | 4.3 | 10.4 | 0.00 | 0.00 | 0.00 | 11 | 1012.0 |
| 20260502004546 | 83 | 331 | 6.1 | 13.9 | 0.00 | 0.00 | 0.00 | 12 | 1012.0 |
| 20260502003048 | 83 | 327 | 6.1 | 12.2 | 0.00 | 0.00 | 0.00 | 12 | 1011.9 |
| 20260502001543 | 83 | 331 | 6.1 | 13.0 | 0.00 | 0.00 | 0.00 | 12 | 1012.0 |
| 20260502000051 | 83 | 9 | 8.7 | 13.9 | 0.00 | 0.00 | 0.00 | 12 | 1012.0 |
| 20260501234546 | 83 | 329 | 5.2 | 12.2 | 0.00 | 0.00 | 0.00 | 12 | 1012.1 |
| 20260501233050 | 83 | 339 | 6.1 | 17.4 | 0.00 | 0.00 | 0.00 | 12 | 1012.2 |
| 20260501231551 | 83 | 313 | 7.8 | 13.0 | 0.00 | 0.00 | 0.00 | 12 | 1012.4 |
| 20260501230048 | 83 | 339 | 7.0 | 13.9 | 0.00 | 0.00 | 0.00 | 12 | 1012.5 |
| 20260501224547 | 84 | 298 | 5.2 | 8.7 | 0.00 | 0.00 | 0.00 | 12 | 1012.5 |
| 20260501223046 | 83 | 336 | 7.8 | 13.9 | 0.00 | 0.00 | 0.00 | 12 | 1012.9 |
| 20260501221549 | 83 | 277 | 7.0 | 14.8 | 0.00 | 0.00 | 0.00 | 12 | 1012.9 |
| 20260501220105 | 83 | 296 | 5.2 | 15.6 | 0.00 | 0.00 | 0.00 | 12 | 1012.9 |
| 20260501214548 | 83 | 321 | 6.1 | 14.8 | 0.00 | 0.00 | 0.00 | 12 | 1013.0 |
| 20260501213050 | 83 | 338 | 7.8 | 15.6 | 0.00 | 0.00 | 0.00 | 13 | 1013.2 |
| 20260501211558 | 82 | 327 | 7.8 | 14.8 | 0.00 | 0.00 | 0.00 | 12 | 1013.5 |
| 20260501210048 | 82 | 335 | 7.0 | 13.9 | 0.00 | 0.00 | 0.00 | 12 | 1013.6 |
| 20260501204600 | 82 | 348 | 5.2 | 15.6 | 0.00 | 0.00 | 0.00 | 13 | 1013.8 |
| 20260501203045 | 82 | 300 | 5.2 | 13.9 | 0.00 | 0.00 | 0.00 | 12 | 1013.9 |
| 20260501201550 | 82 | 239 | 5.2 | 10.4 | 0.00 | 0.00 | 0.00 | 14 | 1014.1 |
| 20260501200050 | 82 | 258 | 6.1 | 12.2 | 0.00 | 0.00 | 0.00 | 14 | 1014.2 |
| 20260501194550 | 82 | 314 | 7.0 | 13.0 | 0.00 | 0.00 | 0.00 | 15 | 1014.2 |
| 20260501193050 | 82 | 82 | 2.6 | 7.0 | 0.00 | 0.00 | 0.00 | 15 | 1014.3 |
| 20260501191548 | 81 | 344 | 7.8 | 13.9 | 0.00 | 0.00 | 0.00 | 16 | 1014.9 |
| 20260501190049 | 80 | 253 | 2.6 | 9.6 | 0.00 | 0.00 | 0.00 | 16 | 1014.9 |
| 20260501184552 | 80 | 5 | 7.0 | 11.3 | 0.00 | 0.00 | 0.00 | 16 | 1015.2 |
| 20260501183103 | 79 | 267 | 1.7 | 8.7 | 0.00 | 0.00 | 0.00 | 16 | 1015.2 |